Location: Bothwell
(42.3833°S, 147.0000°E)
Time: 07:26:30
(UTC+10:00)

N. Korean satellite - Visible Passes

Search period start: 27 June 2022 00:00
Search period end: 07 July 2022 00:00
Orbit: 433 x 477 km, 97.3° (Epoch: 26 June)

Date Brightness Start Highest point End Pass type
(mag) Time Alt. Az. Time Alt. Az. Time Alt. Az.
27 Jun 9.0 18:17:46 10° SSW 18:20:38 22° WSW 18:23:27 10° WNW visible
28 Jun 7.2 17:43:53 10° S 17:47:28 56° WSW 17:50:58 10° NNW visible
29 Jun 9.7 18:45:15 10° SW 18:46:30 11° WSW 18:47:44 10° W visible
30 Jun 8.7 18:10:20 10° SSW 18:13:25 26° WSW 18:16:26 10° NW visible
01 Jul 6.8 17:36:31 10° S 17:40:08 72° WSW 17:43:41 10° NNW visible
02 Jul 9.5 18:37:16 10° SW 18:39:09 14° WSW 18:41:02 10° W visible
03 Jul 8.3 18:02:42 10° S 18:05:57 32° WSW 18:09:10 10° NW visible
04 Jul 6.5 17:28:57 10° SSE 17:32:35 90° ESE 17:36:07 10° NNW visible
05 Jul 9.4 18:29:15 10° SSW 18:31:35 17° WSW 18:33:54 10° WNW visible
06 Jul 7.9 17:54:53 10° S 17:58:17 40° WSW 18:01:36 10° NW visible
